Voltar ao catálogo

COSMOS 2251 DEB

AtivoLEO
NORAD 46271·DEBRIS·🇷🇺 Russia

Lançado Jun 16, 1993 de Plesetsk Cosmodrome

Loading…

Próximas Passagens (próximas 24 horas)

TLE

AtualizadoSource: Space-Track

Época: Sep 13, 2026, 18:53 UTC

1 46271U 93036BWT 26256.78705536  .00000550  00000-0  14205-3 0  9998
2 46271  74.0442 280.5920 0040967 328.8619  31.0115 14.51955886886333

Acompanhe COSMOS 2251 DEB em tempo real com AllMySat

Download on the App Store